[[{"header":{"parameterUnit":"m.s-1","parameterCategory":1,"la1":30.2991,"la2":30.254,"lo1":-89.0895,"lo2":-89.0444,"dy":0.0017,"dx":0.0017,"nx":28,"ny":28,"refTime":"2025-11-16T09:00:00:Z","depth":0,"parameterNumber":2,"parameterNumberName":"U-component_of_WINDS"},"data":[0,0,0,0,0,0,0,0,0,0,0,0,0,0,0,0,0,0,0,0,0,0,0,0,0,0,0,0,0,0,0,0,0,0,0,0,0,0,0,0,0,0,0,0,0,0,0,0,0,0,0,0,0,0,0,0,0,0,2.9902,2.9904,0,3.0044,3.0045,3.0047,3.0049,3.0047,3.0045,3.0043,3.0191,3.0197,3.0202,0,0,0,0,0,0,0,0,0,0,0,0,0,2.9637,2.9642,2.9902,2.9904,2.9906,3.0043,3.0045,3.0047,3.0049,3.0047,3.0045,3.0042,3.019,3.0196,3.0203,0,0,0,0,0,0,0,0,0,0,0,0,0,2.9763,2.9644,2.9902,2.9923,2.9926,3.0043,3.0045,3.0048,3.0049,3.0047,3.0044,3.0041,3.0187,3.0196,3.0204,3.031,0,0,3.023,3.0233,0,0,0,0,0,0,0,0,2.9756,2.9773,2.9918,2.9922,2.9926,3.0026,3.0006,3.0136,3.005,3.0003,3.0043,3.004,3.0139,3.0151,3.0183,3.0317,3.0323,3.023,3.0235,3.0239,3.0241,0,0,0,0,0,0,0,2.9747,2.9767,2.9958,2.992,2.9925,2.9927,2.9942,3.0031,3.0084,3.0007,3.0007,3.0024,3.014,3.0175,3.0187,3.0325,3.023,3.0238,3.0243,3.0246,3.0553,3.0556,0,0,0,0,0,0,2.9734,2.9759,2.9954,2.9962,2.9832,2.9934,2.995,2.9996,3.0083,3.0094,3.0026,3.0023,3.0162,3.0177,3.0192,3.0322,3.0239,3.0247,3.0252,3.055,3.0554,3.0557,0,0,0,0,0,0,2.9728,2.9751,2.9948,2.9861,2.9886,2.9941,2.9993,3.0001,3.0036,3.0098,3.0107,3.0052,3.0161,3.018,3.028,3.0327,3.0251,3.0258,3.0546,3.0551,3.0555,3.0581,0,0,0,0,0,0,2.972,2.9749,2.9789,2.9862,2.9891,3.0033,2.9996,3.0005,3.005,3.0048,3.0124,3.0135,3.016,3.0268,3.0289,3.0337,3.0265,3.0542,3.0548,3.0554,3.0576,3.0586,3.0594,0,0,0,0,0,2.9711,2.9791,2.9791,2.9814,2.9942,3.0035,3.0052,3.0079,3.0053,3.0094,3.0134,3.0132,3.0319,3.0278,3.0302,3.0353,3.054,3.0547,3.0553,3.0572,3.0584,3.0594,0,0,0,0,0,0,2.9723,2.9801,2.9802,2.9908,2.9965,3.0035,3.0088,3.009,3.0157,3.0152,3.0184,3.0201,3.0301,3.0337,3.0291,3.046,3.0426,3.0438,3.0432,3.0444,3.0453,3.0442,3.0272,0,0,0,0,0,2.9738,2.9806,2.9871,2.9959,2.9987,3.0033,3.0074,3.009,3.0151,3.0175,3.0223,3.0283,3.0355,3.0402,3.0472,3.0582,3.0599,3.063,3.0639,3.0646,3.0655,3.0717,3.0731,3.058,3.058,3.058,0,0,2.9769,2.982,2.9862,2.9962,3.0008,3.0079,3.0053,3.0129,3.0183,3.0188,3.0284,3.0321,3.0391,3.0496,3.0545,3.053,3.0701,3.0655,3.066,3.0666,3.0725,3.074,3.0752,3.0585,3.0584,3.0583,0,0,2.9863,2.9908,2.9986,3.0033,3.0102,3.0132,3.0151,3.0222,3.0246,3.0344,3.0349,3.0414,3.0537,3.0586,3.0628,3.0741,3.0741,3.0763,3.081,3.0869,3.0881,3.0892,3.0932,3.0946,3.0773,3.0773,3.0773,0,2.9893,2.9999,3.0026,3.0102,3.0146,3.0153,3.0233,3.0277,3.0367,3.0398,3.0379,3.0534,3.0582,3.0699,3.0726,3.076,3.0783,3.0754,3.0877,3.0888,3.0898,3.0937,3.0952,3.0775,3.0775,3.0774,3.0774,0,3.0033,3.0107,3.0161,3.0246,3.0297,3.0374,3.0414,3.0462,3.0474,3.0506,3.0606,3.0663,3.0745,3.0774,3.0787,3.0894,3.0882,3.087,3.0836,3.0914,3.0951,3.0966,3.0778,3.0777,3.0777,3.0776,0,0,3.0136,3.0235,3.0255,3.0293,3.0372,3.043,3.0509,3.0587,3.0628,3.069,3.0757,3.0862,3.0851,3.0898,3.0917,3.0969,3.1055,3.0951,3.0953,3.0968,3.1176,3.1184,3.12,3.1056,3.1059,3.1062,3.117,0,3.0237,3.0375,3.0402,3.0522,3.0591,3.0599,3.0668,3.0724,3.0757,3.0821,3.0858,3.0931,3.0912,3.094,3.0992,3.1033,3.1097,3.1026,3.1119,3.1122,3.11,3.122,3.1228,3.1327,3.1185,3.1187,3.1189,0,3.0373,3.0437,3.0564,3.0633,3.0663,3.0724,3.0798,3.0859,3.0924,3.0944,3.0996,3.101,3.1093,3.1056,3.1171,3.1122,3.1163,3.1189,3.1193,3.1202,3.1159,3.1231,3.136,3.1374,3.1212,3.121,3.1208,0,3.0434,3.0553,3.0644,3.0677,3.076,3.0803,3.084,3.0901,3.0947,3.1013,3.1043,3.1119,3.116,3.1219,3.1252,3.1222,3.1365,3.1331,3.1385,3.1384,3.1413,3.1411,3.1549,3.1441,3.1441,3.1441,3.144,0,3.0543,3.062,3.0672,3.0728,3.0815,3.0846,3.0932,3.0969,3.1024,3.1088,3.1101,3.1161,3.1203,3.1269,3.1296,3.1388,3.1407,3.1426,3.1432,3.1424,3.1421,3.145,3.1443,3.1445,3.1444,3.1443,3.1442,0,3.0626,3.0664,3.0763,3.0834,3.0854,3.0915,3.0976,3.1032,3.1065,3.1146,3.1167,3.122,3.1299,3.1338,3.1437,3.1455,3.1558,3.1561,3.1536,3.1538,3.1589,3.1584,3.175,3.1774,3.165,3.1652,3.1653,0,3.0692,3.0751,3.0828,3.0871,3.0909,3.0979,3.1026,3.1059,3.1108,3.1186,3.1232,3.1312,3.1377,3.1503,3.1551,3.1627,3.1631,3.1684,3.1642,3.1632,3.1631,3.1626,3.1632,3.1691,3.1692,3.1693,3.1694,0,3.0805,3.0821,3.0887,3.096,3.1015,3.1075,3.1134,3.1169,3.1212,3.1266,3.1347,3.1397,3.1498,3.1577,3.1656,3.1696,3.1703,3.1707,3.1723,3.1715,3.1698,3.1707,3.1555,3.1702,3.1702,3.1701,3.17,3.17,3.0881,3.0934,3.0997,3.107,3.1118,3.1172,3.1228,3.1268,3.1335,3.1418,3.1435,3.152,3.1585,3.1692,3.1735,3.1803,3.1791,3.1815,3.1821,3.1826,3.1828,3.1688,3.1818,3.1817,3.1817,3.1817,3.1817,0,3.0994,3.1035,3.1102,3.1184,3.1242,3.1242,3.1308,3.1356,3.1431,3.149,3.1554,3.1647,3.1724,3.1778,3.1857,3.1901,3.1906,3.192,3.1917,3.1926,3.1834,3.1812,3.1915,3.1915,3.1915,3.1915,3.1915,3.1915,3.106,3.1149,3.1173,3.1287,3.1328,3.1411,3.1448,3.1499,3.1546,3.1649,3.1712,3.1747,3.1805,3.1888,3.1959,3.1973,3.2001,3.2016,3.203,3.1943,3.1932,3.1922,3.1901,3.2022,3.2022,3.2116,3.2116,3.2117]},{"header":{"parameterUnit":"m.s-1","parameterCategory":1,"la1":30.2991,"la2":30.254,"lo1":-89.0895,"lo2":-89.0444,"dy":0.0017,"dx":0.0017,"nx":28,"ny":28,"refTime":"2025-11-16T09:00:00:Z","depth":0,"parameterNumber":3,"parameterNumberName":"V-component_of_WINDS"},"data":[0,0,0,0,0,0,0,0,0,0,0,0,0,0,0,0,0,0,0,0,0,0,0,0,0,0,0,0,0,0,0,0,0,0,0,0,0,0,0,0,0,0,0,0,0,0,0,0,0,0,0,0,0,0,0,0,0,0,1.6629,1.6631,0,1.6725,1.6726,1.6727,1.6727,1.6725,1.6724,1.6723,1.6823,1.6826,1.683,0,0,0,0,0,0,0,0,0,0,0,0,0,1.6448,1.6451,1.6629,1.6631,1.6632,1.6725,1.6726,1.6727,1.6727,1.6725,1.6724,1.6722,1.6821,1.6826,1.683,0,0,0,0,0,0,0,0,0,0,0,0,0,1.6533,1.6452,1.6629,1.6643,1.6645,1.6724,1.6726,1.6728,1.6727,1.6725,1.6723,1.6722,1.682,1.6825,1.6831,1.6904,0,0,1.6849,1.6851,0,0,0,0,0,0,0,0,1.6529,1.654,1.664,1.6642,1.6644,1.6712,1.6699,1.6787,1.6728,1.6696,1.6723,1.6721,1.6787,1.6796,1.6818,1.6909,1.6913,1.6849,1.6853,1.6855,1.6857,0,0,0,0,0,0,0,1.6523,1.6536,1.6667,1.6641,1.6644,1.6644,1.6654,1.6715,1.6751,1.6699,1.6699,1.671,1.6788,1.6812,1.682,1.6915,1.6849,1.6854,1.6858,1.686,1.707,1.7072,0,0,0,0,0,0,1.6514,1.6531,1.6664,1.667,1.6581,1.6649,1.666,1.6692,1.6751,1.6758,1.6712,1.671,1.6803,1.6813,1.6824,1.6913,1.6855,1.686,1.6864,1.7068,1.707,1.7073,0,0,0,0,0,0,1.651,1.6526,1.666,1.6601,1.6618,1.6654,1.669,1.6695,1.6719,1.676,1.6767,1.6729,1.6802,1.6816,1.6884,1.6916,1.6863,1.6868,1.7065,1.7069,1.7072,1.7092,0,0,0,0,0,0,1.6505,1.6524,1.6552,1.6601,1.6621,1.6719,1.6692,1.6698,1.6729,1.6727,1.6779,1.6785,1.6802,1.6875,1.689,1.6923,1.6873,1.7063,1.7067,1.707,1.7089,1.7096,1.7102,0,0,0,0,0,1.6498,1.6555,1.6554,1.657,1.6657,1.6721,1.6732,1.6749,1.6731,1.676,1.6786,1.6784,1.691,1.6882,1.6898,1.6934,1.7061,1.7066,1.707,1.7086,1.7094,1.7102,0,0,0,0,0,0,1.6509,1.6561,1.6561,1.6635,1.6673,1.672,1.6757,1.6758,1.6803,1.6799,1.682,1.6831,1.6899,1.6924,1.6892,1.7008,1.6983,1.6992,1.699,1.6998,1.7004,1.6998,1.6877,0,0,0,0,0,1.652,1.6567,1.661,1.6672,1.6691,1.6721,1.6749,1.6759,1.68,1.6816,1.6848,1.6888,1.6937,1.6969,1.7016,1.7092,1.7103,1.7125,1.7131,1.7136,1.7143,1.7185,1.7195,1.7088,1.7088,1.7088,0,0,1.6544,1.6578,1.6607,1.6675,1.6706,1.6754,1.6734,1.6787,1.6823,1.6825,1.6891,1.6915,1.6961,1.7034,1.7067,1.7056,1.7175,1.7142,1.7146,1.715,1.7191,1.7201,1.721,1.7092,1.7091,1.7091,0,0,1.6611,1.6642,1.6696,1.6727,1.6774,1.6793,1.6806,1.6853,1.6869,1.6936,1.6937,1.6981,1.7065,1.7098,1.7125,1.7204,1.7204,1.7219,1.7253,1.7294,1.7302,1.731,1.7338,1.7348,1.7226,1.7226,1.7226,0,1.6635,1.6708,1.6724,1.6776,1.6806,1.6809,1.6864,1.6893,1.6953,1.6974,1.6961,1.7065,1.7097,1.7177,1.7196,1.7218,1.7234,1.7214,1.7299,1.7307,1.7314,1.7342,1.7352,1.7227,1.7227,1.7227,1.7227,0,1.6734,1.6785,1.6823,1.688,1.6914,1.6968,1.6992,1.7025,1.7032,1.7052,1.712,1.7158,1.7212,1.7232,1.7239,1.7313,1.7305,1.7295,1.7271,1.7326,1.7352,1.7363,1.723,1.7229,1.7229,1.7228,0,0,1.6813,1.6877,1.6891,1.6917,1.6968,1.7008,1.7061,1.7114,1.7142,1.7183,1.7229,1.7299,1.729,1.7321,1.7332,1.7368,1.7428,1.7354,1.7355,1.7367,1.7512,1.7519,1.7531,1.7427,1.7429,1.7431,1.7508,0,1.6886,1.6981,1.6996,1.708,1.7127,1.7129,1.7176,1.7212,1.7233,1.7276,1.7299,1.7349,1.7333,1.7352,1.7387,1.7413,1.7458,1.7408,1.7471,1.7473,1.746,1.7545,1.7553,1.7624,1.7518,1.752,1.7521,0,1.6984,1.7027,1.7115,1.7159,1.718,1.7222,1.7271,1.7312,1.7354,1.7366,1.74,1.7407,1.7463,1.7435,1.7513,1.7479,1.7505,1.7522,1.7525,1.7532,1.7501,1.7555,1.7647,1.7658,1.7538,1.7536,1.7535,0,1.7033,1.7113,1.7175,1.7197,1.7251,1.728,1.7304,1.7343,1.7374,1.7417,1.7437,1.7487,1.7514,1.7552,1.7572,1.755,1.7648,1.7622,1.7661,1.766,1.7682,1.7681,1.778,1.7698,1.7698,1.7698,1.7697,0,1.7114,1.7167,1.7198,1.7237,1.7297,1.7314,1.7374,1.7397,1.7432,1.7475,1.748,1.7521,1.7544,1.7589,1.7604,1.7666,1.7679,1.7691,1.7694,1.7691,1.7689,1.7709,1.7705,1.77,1.77,1.7699,1.7699,0,1.7179,1.7201,1.727,1.7314,1.7327,1.7369,1.7408,1.7446,1.7465,1.752,1.7534,1.7566,1.7618,1.7641,1.7706,1.7717,1.7788,1.7787,1.7774,1.7775,1.7812,1.7809,1.7929,1.7946,1.7851,1.7852,1.7853,0,1.7229,1.727,1.7319,1.7348,1.7372,1.7419,1.745,1.7469,1.7501,1.7551,1.7583,1.7635,1.7678,1.7762,1.7791,1.784,1.7842,1.788,1.7849,1.7844,1.7843,1.784,1.7845,1.7886,1.7887,1.7888,1.7889,0,1.7316,1.7325,1.7369,1.7417,1.7454,1.7493,1.7531,1.7554,1.7579,1.7615,1.7668,1.7701,1.7767,1.7819,1.787,1.7895,1.7896,1.7898,1.791,1.7907,1.7897,1.7903,1.779,1.7895,1.7895,1.7894,1.7894,1.7894,1.7375,1.7412,1.7452,1.7501,1.7531,1.7567,1.7604,1.7629,1.7673,1.7728,1.7736,1.7793,1.7833,1.7902,1.7928,1.7973,1.7964,1.7981,1.7985,1.7989,1.7992,1.7889,1.7983,1.7983,1.7982,1.7982,1.7982,0,1.7463,1.7488,1.7533,1.7586,1.7625,1.7621,1.7663,1.7696,1.7746,1.7783,1.7825,1.7886,1.7936,1.7969,1.802,1.8049,1.8051,1.8062,1.8061,1.8066,1.7997,1.7982,1.806,1.806,1.806,1.806,1.806,1.806,1.7513,1.7575,1.7589,1.7666,1.7691,1.7747,1.7771,1.7804,1.7833,1.7901,1.7943,1.7963,1.7999,1.8052,1.8098,1.8106,1.8125,1.8137,1.8145,1.8079,1.8071,1.8064,1.805,1.814,1.8141,1.8211,1.8211,1.8212]}]]